| time (UTC) | temp F | wind direction | speed MPH | gust MPH | rain 1hr in | rain 24hr in | rain mn in | humidity % | barometer mb |
| 20260902164311 | 74 | 67 | 0.0 | 1.0 | 0.00 | 0.01 | 0.00 | 71 | 1036.0 |
| 20260902163409 | 75 | 76 | 2.0 | 4.0 | 0.00 | 0.01 | 0.00 | 71 | 1036.2 |
| 20260902161412 | 75 | 90 | 2.0 | 4.0 | 0.00 | 0.02 | 0.00 | 70 | 1036.3 |
| 20260902160411 | 75 | 112 | 1.0 | 2.0 | 0.00 | 0.03 | 0.00 | 70 | 1036.3 |
| 20260902155412 | 75 | 67 | 0.0 | 2.0 | 0.00 | 0.05 | 0.00 | 70 | 1036.4 |
| 20260902154411 | 76 | 90 | 1.0 | 3.0 | 0.00 | 0.05 | 0.00 | 69 | 1036.5 |
| 20260902152411 | 74 | 90 | 1.0 | 3.0 | 0.00 | 0.05 | 0.00 | 72 | 1036.5 |
| 20260902151509 | 74 | 135 | 1.0 | 2.0 | 0.00 | 0.05 | 0.00 | 72 | 1036.6 |
| 20260902150511 | 74 | 67 | 1.0 | 2.0 | 0.00 | 0.06 | 0.00 | 73 | 1036.6 |
| 20260902145610 | 74 | 90 | 0.0 | 1.0 | 0.00 | 0.10 | 0.00 | 72 | 1036.8 |
| 20260902144611 | 73 | 112 | 0.0 | 0.0 | 0.00 | 0.14 | 0.00 | 75 | 1036.6 |
| 20260902143610 | 72 | 67 | 0.0 | 3.0 | 0.00 | 0.15 | 0.00 | 76 | 1036.4 |
| 20260902142610 | 70 | 58 | 2.0 | 4.0 | 0.00 | 0.15 | 0.00 | 78 | 1036.7 |
| 20260902141611 | 70 | 352 | 0.0 | 0.0 | 0.00 | 0.15 | 0.00 | 78 | 1036.8 |
| 20260902140708 | 70 | 14 | 1.0 | 4.0 | 0.00 | 0.15 | 0.00 | 79 | 1036.7 |
| 20260902135712 | 69 | 30 | 1.0 | 4.0 | 0.00 | 0.15 | 0.00 | 80 | 1036.7 |
| 20260902134808 | 69 | 95 | 1.0 | 4.0 | 0.00 | 0.15 | 0.00 | 81 | 1036.4 |
| 20260902132809 | 68 | 77 | 1.0 | 3.0 | 0.00 | 0.15 | 0.00 | 81 | 1036.4 |
| 20260902131812 | 68 | 71 | 0.0 | 1.0 | 0.00 | 0.15 | 0.00 | 82 | 1036.5 |
| 20260902125912 | 67 | 76 | 1.0 | 2.0 | 0.00 | 0.15 | 0.00 | 83 | 1036.4 |
| 20260902124912 | 67 | 67 | 1.0 | 1.0 | 0.00 | 0.15 | 0.00 | 83 | 1036.2 |
| 20260902123911 | 67 | 69 | 1.0 | 3.0 | 0.00 | 0.15 | 0.00 | 83 | 1036.2 |
| 20260902123010 | 67 | 140 | 0.0 | 2.0 | 0.00 | 0.15 | 0.00 | 83 | 1036.1 |
| 20260902121010 | 66 | 58 | 1.0 | 3.0 | 0.00 | 0.15 | 0.00 | 84 | 1036.2 |
| 20260902120008 | 66 | 75 | 2.0 | 5.0 | 0.00 | 0.15 | 0.00 | 84 | 1036.2 |
| 20260902113010 | 66 | 337 | 0.0 | 0.0 | 0.00 | 0.15 | 0.00 | 84 | 1036.4 |
| 20260902111108 | 66 | 75 | 1.0 | 2.0 | 0.00 | 0.15 | 0.00 | 85 | 1036.2 |
| 20260902110111 | 65 | 67 | 0.0 | 2.0 | 0.00 | 0.15 | 0.00 | 85 | 1036.2 |
| 20260902104308 | 65 | 25 | 0.0 | 2.0 | 0.00 | 0.15 | 0.00 | 85 | 1036.1 |
| 20260902103311 | 65 | 42 | 1.0 | 2.0 | 0.00 | 0.15 | 0.00 | 86 | 1036.0 |
| 20260902102409 | 65 | 105 | 1.0 | 3.0 | 0.00 | 0.15 | 0.00 | 86 | 1035.9 |
| 20260902101410 | 65 | 123 | 1.0 | 1.0 | 0.00 | 0.15 | 0.00 | 87 | 1035.8 |
| 20260902100410 | 65 | 67 | 2.0 | 2.0 | 0.00 | 0.15 | 0.00 | 87 | 1035.8 |
| 20260902094412 | 65 | 180 | 0.0 | 0.0 | 0.00 | 0.15 | 0.00 | 88 | 1035.7 |
| 20260902093509 | 65 | 4 | 1.0 | 3.0 | 0.00 | 0.15 | 0.00 | 88 | 1035.6 |
| 20260902091608 | 65 | 76 | 1.0 | 3.0 | 0.00 | 0.15 | 0.00 | 89 | 1035.2 |
| 20260902085611 | 65 | 318 | 0.0 | 3.0 | 0.00 | 0.15 | 0.00 | 91 | 1035.3 |
| 20260902084610 | 65 | 70 | 1.0 | 4.0 | 0.00 | 0.15 | 0.00 | 91 | 1035.2 |
| 20260902083610 | 65 | 74 | 2.0 | 4.0 | 0.00 | 0.15 | 0.00 | 91 | 1035.0 |
| 20260902082610 | 66 | 67 | 1.0 | 3.0 | 0.00 | 0.15 | 0.00 | 91 | 1035.2 |
| 20260902081708 | 66 | 101 | 2.0 | 6.0 | 0.00 | 0.15 | 0.00 | 92 | 1035.1 |
| 20260902080710 | 66 | 65 | 3.0 | 5.0 | 0.00 | 0.16 | 0.00 | 92 | 1035.0 |
| 20260902074809 | 67 | 69 | 1.0 | 3.0 | 0.00 | 0.18 | 0.00 | 92 | 1034.7 |
| 20260902073811 | 67 | 74 | 2.0 | 2.0 | 0.00 | 0.18 | 0.00 | 92 | 1034.7 |
| 20260902072908 | 67 | 69 | 0.0 | 1.0 | 0.00 | 0.20 | 0.00 | 91 | 1034.7 |
| 20260902071910 | 68 | 83 | 1.0 | 2.0 | 0.00 | 0.24 | 0.00 | 91 | 1034.5 |
| 20260902070909 | 68 | 155 | 0.0 | 2.0 | 0.00 | 0.27 | 0.00 | 91 | 1034.5 |
| 20260902065009 | 67 | 67 | 0.0 | 1.0 | 0.00 | 0.39 | 0.00 | 90 | 1034.5 |
| 20260902064011 | 67 | 67 | 0.0 | 0.0 | 0.00 | 0.44 | 0.00 | 90 | 1034.6 |
| 20260902062010 | 67 | 4 | 1.0 | 2.0 | 0.00 | 0.59 | 0.00 | 90 | 1034.5 |
| 20260902061010 | 67 | 67 | 0.0 | 2.0 | 0.00 | 0.64 | 0.00 | 90 | 1034.5 |
| 20260902060011 | 67 | 333 | 0.0 | 1.0 | 0.00 | 0.72 | 0.00 | 90 | 1034.5 |
| 20260902055109 | 67 | 132 | 0.0 | 1.0 | 0.00 | 0.81 | 0.00 | 90 | 1034.7 |
| 20260902054112 | 67 | 67 | 1.0 | 3.0 | 0.00 | 0.90 | 0.00 | 90 | 1034.7 |
| 20260902053112 | 67 | 67 | 1.0 | 2.0 | 0.00 | 0.95 | 0.00 | 90 | 1034.5 |
| 20260902052110 | 67 | 99 | 2.0 | 3.0 | 0.00 | 1.02 | 0.00 | 90 | 1034.5 |
| 20260902051110 | 66 | 67 | 1.0 | 3.0 | 0.00 | 1.06 | 0.00 | 90 | 1034.5 |
| 20260902050109 | 66 | 86 | 1.0 | 2.0 | 0.00 | 1.09 | 0.00 | 90 | 1034.6 |
| 20260902044209 | 66 | 71 | 1.0 | 3.0 | 0.00 | 1.09 | 0.00 | 90 | 1034.7 |
| 20260902043308 | 66 | 329 | 0.0 | 1.0 | 0.00 | 1.09 | 0.00 | 90 | 1034.7 |
| 20260902042311 | 66 | 67 | 0.0 | 0.0 | 0.00 | 1.09 | 0.00 | 91 | 1034.4 |
| 20260902040309 | 66 | 108 | 1.0 | 2.0 | 0.00 | 1.09 | 0.00 | 91 | 1034.0 |
| 20260902034316 | 66 | 85 | 1.0 | 2.0 | 0.00 | 1.09 | 1.09 | 90 | 1033.9 |
| 20260902033315 | 66 | 71 | 2.0 | 4.0 | 0.00 | 1.09 | 1.09 | 90 | 1033.9 |
| 20260902032414 | 66 | 86 | 2.0 | 4.0 | 0.00 | 1.09 | 1.09 | 90 | 1034.0 |
| 20260902031417 | 66 | 92 | 1.0 | 2.0 | 0.00 | 1.09 | 1.09 | 90 | 1034.1 |
| 20260902030414 | 66 | 123 | 1.0 | 3.0 | 0.00 | 1.09 | 1.09 | 90 | 1034.0 |
| 20260902025416 | 66 | 67 | 0.0 | 1.0 | 0.00 | 1.09 | 1.09 | 89 | 1033.8 |
| 20260902024416 | 66 | 5 | 0.0 | 2.0 | 0.00 | 1.09 | 1.09 | 89 | 1033.8 |
| 20260902022416 | 66 | 107 | 1.0 | 3.0 | 0.00 | 1.09 | 1.09 | 89 | 1033.5 |
| 20260902021416 | 67 | 67 | 0.0 | 2.0 | 0.00 | 1.09 | 1.09 | 89 | 1033.4 |
| 20260902020515 | 67 | 73 | 1.0 | 4.0 | 0.00 | 1.09 | 1.09 | 89 | 1033.3 |
| 20260902015516 | 67 | 63 | 1.0 | 3.0 | 0.00 | 1.09 | 1.09 | 89 | 1033.0 |
| 20260902014516 | 67 | 24 | 0.0 | 2.0 | 0.00 | 1.09 | 1.09 | 89 | 1033.0 |
| 20260902013614 | 67 | 174 | 0.0 | 1.0 | 0.00 | 1.09 | 1.09 | 89 | 1033.0 |
| 20260902012617 | 67 | 67 | 1.0 | 3.0 | 0.00 | 1.09 | 1.09 | 89 | 1032.5 |
| 20260902011616 | 67 | 99 | 1.0 | 2.0 | 0.00 | 1.09 | 1.09 | 89 | 1032.2 |
| 20260902010616 | 68 | 74 | 1.0 | 2.0 | 0.00 | 1.09 | 1.09 | 89 | 1032.1 |
| 20260902005715 | 68 | 94 | 1.0 | 3.0 | 0.00 | 1.09 | 1.09 | 89 | 1032.1 |
| 20260902004815 | 68 | 87 | 2.0 | 4.0 | 0.00 | 1.09 | 1.09 | 89 | 1031.8 |
| 20260902003816 | 69 | 329 | 1.0 | 2.0 | 0.00 | 1.09 | 1.09 | 89 | 1031.9 |
| 20260902002914 | 69 | 74 | 2.0 | 3.0 | 0.00 | 1.09 | 1.09 | 89 | 1031.8 |
| 20260902001916 | 70 | 47 | 1.0 | 2.0 | 0.00 | 1.09 | 1.09 | 90 | 1031.8 |
| 20260902000915 | 70 | 100 | 2.0 | 5.0 | 0.00 | 1.09 | 1.09 | 90 | 1031.7 |
| 20260901235916 | 71 | 98 | 1.0 | 2.0 | 0.00 | 1.09 | 1.09 | 91 | 1031.7 |
| 20260901235015 | 72 | 75 | 1.0 | 3.0 | 0.00 | 1.09 | 1.09 | 91 | 1031.3 |
| 20260901233114 | 72 | 67 | 0.0 | 0.0 | 0.00 | 1.09 | 1.09 | 91 | 1031.5 |
| 20260901232115 | 72 | 35 | 2.0 | 4.0 | 0.00 | 1.09 | 1.09 | 91 | 1031.2 |
| 20260901231115 | 73 | 84 | 1.0 | 2.0 | 0.00 | 1.09 | 1.09 | 91 | 1031.3 |
| 20260901230114 | 73 | 65 | 2.0 | 3.0 | 0.00 | 1.09 | 1.09 | 91 | 1031.0 |
| 20260901225115 | 73 | 63 | 1.0 | 2.0 | 0.00 | 1.09 | 1.09 | 91 | 1030.9 |
| 20260901224114 | 73 | 69 | 1.0 | 3.0 | 0.00 | 1.09 | 1.09 | 91 | 1030.9 |
| 20260901223115 | 74 | 31 | 0.0 | 2.0 | 0.00 | 1.09 | 1.09 | 90 | 1030.8 |
| 20260901222115 | 74 | 337 | 0.0 | 0.0 | 0.00 | 1.09 | 1.09 | 90 | 1030.8 |
| 20260901221214 | 74 | 67 | 1.0 | 3.0 | 0.00 | 1.09 | 1.09 | 90 | 1030.8 |
| 20260901215215 | 75 | 56 | 2.0 | 4.0 | 0.00 | 1.09 | 1.09 | 90 | 1030.6 |
| 20260901214215 | 75 | 65 | 1.0 | 2.0 | 0.00 | 1.09 | 1.09 | 90 | 1030.7 |
| 20260901212315 | 75 | 67 | 0.0 | 1.0 | 0.00 | 1.09 | 1.09 | 89 | 1030.7 |
| 20260901211315 | 76 | 180 | 0.0 | 1.0 | 0.00 | 1.09 | 1.09 | 89 | 1030.9 |
| 20260901210316 | 76 | 81 | 0.0 | 4.0 | 0.00 | 1.09 | 1.09 | 89 | 1030.8 |
| 20260901205316 | 76 | 337 | 0.0 | 0.0 | 0.00 | 1.09 | 1.09 | 88 | 1030.7 |
| 20260901203415 | 79 | 90 | 1.0 | 3.0 | 0.00 | 1.09 | 1.09 | 85 | 1030.5 |
| 20260901202415 | 79 | 247 | 0.0 | 0.0 | 0.00 | 1.09 | 1.09 | 84 | 1030.4 |
| 20260901201416 | 79 | 247 | 0.0 | 0.0 | 0.00 | 1.09 | 1.09 | 84 | 1030.4 |
| 20260901200414 | 80 | 247 | 0.0 | 0.0 | 0.00 | 1.09 | 1.09 | 84 | 1030.2 |
| 20260901195418 | 80 | 247 | 0.0 | 0.0 | 0.00 | 1.09 | 1.09 | 84 | 1030.4 |
| 20260901194416 | 80 | 247 | 0.0 | 0.0 | 0.00 | 1.09 | 1.09 | 85 | 1030.3 |
| 20260901193416 | 80 | 247 | 0.0 | 0.0 | 0.00 | 1.09 | 1.09 | 87 | 1030.4 |
| 20260901192514 | 79 | 247 | 0.0 | 0.0 | 0.00 | 1.09 | 1.09 | 88 | 1030.3 |
| 20260901191515 | 80 | 247 | 0.0 | 0.0 | 0.00 | 1.09 | 1.09 | 90 | 1030.4 |
| 20260901190516 | 78 | 247 | 0.0 | 0.0 | 0.00 | 1.09 | 1.09 | 91 | 1030.2 |
| 20260901185516 | 78 | 247 | 0.0 | 0.0 | 0.00 | 1.09 | 1.09 | 92 | 1030.3 |
| 20260901183615 | 78 | 247 | 0.0 | 0.0 | 0.00 | 1.09 | 1.09 | 93 | 1030.5 |
| 20260901182615 | 77 | 247 | 0.0 | 0.0 | 0.00 | 1.09 | 1.09 | 94 | 1030.4 |
| 20260901181614 | 76 | 247 | 0.0 | 0.0 | 0.00 | 1.09 | 1.09 | 94 | 1030.5 |
| 20260901180614 | 76 | 247 | 0.0 | 0.0 | 0.00 | 1.09 | 1.09 | 94 | 1030.7 |
| 20260901175617 | 76 | 247 | 0.0 | 0.0 | 0.01 | 1.09 | 1.09 | 94 | 1030.6 |
| 20260901173615 | 75 | 180 | 0.0 | 0.0 | 0.01 | 1.09 | 1.09 | 94 | 1030.8 |
| 20260901172617 | 75 | 271 | 0.0 | 0.0 | 0.01 | 1.09 | 1.09 | 94 | 1030.9 |
| 20260901172518 | 75 | 270 | 0.0 | 0.0 | 0.01 | 1.09 | 1.09 | 94 | 1030.8 |
| 20260901171515 | 75 | 292 | 0.0 | 0.0 | 0.02 | 1.09 | 1.09 | 94 | 1030.6 |
| 20260901170517 | 74 | 67 | 0.0 | 0.0 | 0.03 | 1.09 | 1.09 | 94 | 1030.7 |
| 20260901165514 | 74 | 141 | 0.0 | 0.0 | 0.04 | 1.08 | 1.08 | 94 | 1031.2 |
| 20260901164613 | 74 | 67 | 0.0 | 1.0 | 0.04 | 1.08 | 1.08 | 94 | 1031.3 |